Location: Blumenberg
(52.0334°N, 11.4585°E)
Time: 17:39:32
(UTC+00:00)

Daily predictions for brighter satellites

Satellite Brightness Start Highest point End
(mag) Time Altitude Azimuth Time Altitude Azimuth Time Altitude Azimuth
Cosmos 1703 3.2 20:18:07 10° S 20:21:58 69° E 20:25:51 10° NNE
NOSS 3-4 (A) 4.5 20:16:18 10° NW 20:22:47 50° NNE 20:29:57 10° ESE
Cosmos 1844 3.9 20:17:16 10° NNW 20:23:04 75° WSW 20:28:46 10° SSE
COSMOS 2428 3.6 20:18:20 10° SSE 20:23:06 29° ESE 20:27:54 10° NE
Cosmos 2322 4.0 20:21:23 10° S 20:26:50 47° ESE 20:32:18 10° NE
CZ-4B DEB 4.4 20:28:50 10° SSE 20:32:11 87° E 20:35:34 10° NNW
Cosmos 783 Rocket 4.5 20:27:45 10° SSW 20:32:58 72° ESE 20:38:11 10° NNE
Cosmos 1709 Rocket 4.1 20:27:22 10° S 20:33:38 72° E 20:40:00 10° NNE
Terra 2.1 20:32:01 10° SSE 20:36:40 56° ENE 20:41:20 10° N
Cosmos 2237 Rocket 3.9 20:33:46 10° SE 20:37:05 16° E 20:40:24 10° ENE
CARTOSAT-1 3.6 20:33:29 10° SSE 20:37:48 83° ENE 20:42:08 10° NNW
Cosmos 2333 4.4 20:33:06 10° S 20:38:36 55° ESE 20:44:10 10° NE
Cosmos 2219 Rocket 2.7 20:33:52 10° S 20:39:02 40° ESE 20:44:14 10° NE
Cosmos 2360 Rocket 2.3 20:35:13 10° SSW 20:40:52 85° WNW 20:46:36 10° NNE
IGS 5A 4.2 20:37:01 10° S 20:41:04 50° W 20:45:08 10° NNW
Cosmos 2333 Rocket 2.5 20:43:19 10° S 20:48:47 50° ESE 20:54:19 10° NE
Cosmos 1315 Rocket 2.9 20:46:09 10° N 20:50:15 74° ENE 20:54:13 11° SSE
ATLAS 2AS CENTAUR R/B 3.4 20:43:10 10° NW 20:50:53 60° NE 20:57:57 10° ESE
Resurs 01 Rocket 3.9 20:49:57 10° SW 20:53:12 20° W 20:56:29 10° NW
Cosmos-2242 4.0 20:49:29 10° NNW 20:53:38 44° W 20:57:46 10° SSW
Cosmos 1818 3.7 20:50:44 10° SW 20:56:11 84° NW 21:01:41 10° NE
Cosmos 2221 2.9 20:54:23 10° N 20:58:42 54° ENE 21:02:29 13° SSE
Cosmos 773 Rocket 4.0 20:53:31 10° SSW 20:58:49 78° ESE 21:04:08 10° NNE
SL-16 R/B 3.9 20:54:53 10° WSW 21:00:08 37° NW 21:05:24 10° NNE
GEOS 3 Rocket 3.7 20:56:46 10° NE 21:02:12 81° SE 21:07:36 10° SW
ERS-1 Rocket 3.4 20:57:20 10° S 21:02:19 62° WSW 21:07:21 10° NNW
USA 215 3.4 20:59:09 10° ENE 21:05:33 51° SE 21:11:54 10° SW
Cosmos 2278 Rocket 2.3 21:02:22 10° NNW 21:08:05 75° ENE 21:13:09 13° SE
Cosmos 1892 3.8 21:07:01 14° SE 21:09:34 28° E 21:12:52 10° NNE
Cosmos 1844 Rocket 4.2 21:07:46 10° NW 21:12:28 29° WSW 21:17:09 10° SSW
ATLAS 5 CENTAUR R/B 1.8 21:08:32 10° SW 21:12:47 75° NW 21:17:40 10° NE
Meteor 1-11 4.4 21:07:44 10° SSW 21:13:22 79° WNW 21:19:07 10° N
Cosmos 1943 Rocket 4.2 21:11:11 10° NNW 21:15:40 23° NE 21:20:06 10° E
SPOT 5 3.6 21:14:12 10° S 21:19:05 50° W 21:23:45 10° NNW
Lacrosse 5 rocket 2.7 21:17:07 10° WNW 21:21:06 40° N 21:24:53 10° ENE
SL-16 R/B 4.1 21:18:56 10° ESE 21:21:30 13° E 21:24:06 10° ENE
Cosmos 2056 Rocket 4.3 21:17:39 10° NNW 21:22:51 45° NE 21:27:39 12° SE
Nadezhda 3 Rocket 4.3 21:17:34 10° N 21:23:55 60° ENE 21:29:11 15° SSE
USA 81 4.4 21:20:59 10° SSW 21:26:14 66° W 21:31:31 10° N
Cosmos 2058 3.4 21:25:00 16° SSE 21:28:00 45° E 21:31:59 10° NNE
Cosmos 2154 Rocket 4.4 21:23:04 14° SSE 21:28:09 49° E 21:34:07 10° NNE
Cosmos 1408 3.7 21:29:06 18° SE 21:31:02 29° E 21:34:10 10° NNE
In-Cosmos 22 Rocket 4.2 21:29:55 14° S 21:34:25 60° E 21:39:40 10° NNE
TSX-5 3.7 21:31:26 10° NW 21:34:50 69° WSW 21:37:36 19° SSE
Cosmos 2074 Rocket 4.0 21:29:15 10° S 21:35:25 82° E 21:41:40 10° NNE
Cosmos 1076 Rocket 3.8 21:36:09 17° SSE 21:39:12 53° E 21:43:23 10° NNE
Cosmos 1680 Rocket 4.0 21:35:42 15° S 21:39:41 43° ESE 21:44:43 10° NE
USA 267 3.4 21:34:05 13° SE 21:40:00 65° SW 21:46:32 10° WNW
CZ-4C R/B 4.0 21:38:07 10° NW 21:44:11 39° NNE 21:51:18 10° E
Cosmos 1842 Rocket 4.3 21:41:15 10° NNW 21:45:27 47° W 21:49:02 13° SSW
JB-3 4.2 21:42:52 10° NNE 21:46:45 85° WNW 21:49:57 14° SSW
COSMOS 2455 4.0 21:42:23 10° NNW 21:48:04 40° NE 21:53:44 10° ESE
Cosmos 2151 4.0 21:47:18 18° SE 21:49:43 32° E 21:53:33 10° NNE
MTI 4.0 21:47:41 10° N 21:50:45 63° WNW 21:53:10 15° SSW
ATLAS CENTAUR R/B 2.9 21:53:55 10° WNW 21:56:36 19° WSW 21:58:26 14° SSW
Cosmos 923 Rocket 4.0 21:52:20 12° SSW 21:57:08 74° ESE 22:02:27 10° NNE
Cosmos 2327 Rocket 4.5 21:52:15 14° S 21:57:37 83° E 22:03:46 10° NNE
Cosmos 1825 2.8 21:58:08 22° SSE 22:00:07 42° E 22:03:43 10° NNE
Cosmos 2369 Rocket 3.8 21:55:25 10° NNW 22:00:16 29° NE 22:05:07 10° E
Cosmos 1151 Rocket 4.1 21:56:22 10° N 22:00:22 34° ENE 22:03:13 16° SE
ALOS 2 3.2 21:58:04 18° SE 22:01:04 47° ENE 22:05:18 10° N
Cosmos 1980 3.7 21:56:55 13° SSW 22:01:59 65° ESE 22:07:36 10° NE
Cosmos 967 Rocket 4.5 21:57:50 10° SSW 22:04:18 75° SE 22:10:46 10° NE
Cosmos 44 4.4 22:05:15 19° SE 22:06:26 22° ESE 22:09:48 10° ENE
COSMOS 2428 3.2 22:01:24 10° SW 22:07:01 61° NW 22:12:41 10° NNE
Cosmos 371 Rocket 4.0 22:03:16 10° NNW 22:08:00 47° ENE 22:11:47 15° SE
GP-B 3.9 22:04:37 10° NNE 22:08:48 39° E 22:11:23 20° SE
Cosmos 1295 Rocket 4.5 22:06:31 17° S 22:11:19 77° E 22:17:26 10° NNE
Cosmos 1624 Rocket 4.0 22:08:10 10° NNW 22:13:27 83° WSW 22:16:57 21° SSE
NOSS 3-4 (A) 4.0 22:07:14 10° NW 22:14:03 65° SW 22:19:46 18° SSE
NOSS 3-4 (C) 3.9 22:07:21 10° NW 22:14:10 65° SW 22:19:55 18° SSE
NOSS 0 Rocket 3.9 22:08:14 10° SSW 22:14:24 87° ESE 22:20:38 10° NNE
Terra 3.6 22:10:59 10° SW 22:14:45 23° W 22:18:32 10° NW
Cosmos 2237 Rocket 2.2 22:14:58 12° SSW 22:20:16 81° ESE 22:26:00 10° NNE
SL-4 R/B 2.3 22:19:54 19° E 22:20:17 20° ENE 22:21:56 10° NNE
Genesis I 3.4 22:18:36 22° SSW 22:20:49 51° SE 22:24:37 10° NE
CREW DRAGON DEMO-1 DEB 4.4 22:22:53 20° ESE 22:22:53 20° ESE 22:24:23 10° E
Cosmos 2344 3.7 22:16:02 11° SSW 22:22:58 56° ESE 22:30:53 10° NE
Cosmos 2219 Rocket 3.3 22:17:37 10° WSW 22:22:58 45° NW 22:28:23 10° NNE
NOSS 3-3 (A) 4.4 22:19:47 10° WSW 22:25:48 68° NW 22:32:44 10° NE
NOSS 3-3 (C) 4.4 22:19:52 10° WSW 22:25:54 68° NW 22:32:51 10° NE
Thor Agena Rocket 3.5 22:24:13 10° NNE 22:29:21 83° WNW 22:33:18 17° SSW
Cosmos 2333 Rocket 3.6 22:27:56 10° WSW 22:33:15 39° NW 22:38:37 10° NNE
RESURS DK-1 4.3 22:35:09 10° NNW 22:38:42 27° NE 22:42:15 10° ESE
Cosmos 1515 Rocket 4.1 22:36:23 10° N 22:40:38 48° ENE 22:43:15 21° SE
BREEZE-M DEB (TANK) 2.2 22:38:13 10° W 22:41:21 31° SSW 22:41:21 31° SSW
ATLAS 2AS CENTAUR R/B 3.2 22:34:35 10° NW 22:41:51 50° WSW 22:46:25 21° S
EO 1 Del DPAF 3.6 22:38:48 10° N 22:42:31 58° WNW 22:44:59 20° SW
Cosmos 1892 4.4 22:41:59 10° SW 22:45:14 28° WNW 22:48:35 10° N
Cosmos 1766 Rocket 3.5 22:44:24 26° S 22:46:52 77° E 22:51:18 10° NNE
Cosmos 1328 Rocket 3.5 22:43:44 10° N 22:48:04 89° ENE 22:50:25 27° S
Aureole 2 Rocket 2.5 22:45:36 10° NW 22:48:18 44° WSW 22:48:59 35° SSW
USA 215 3.4 22:42:15 10° ENE 22:48:50 77° NNW 22:55:23 10° WSW
Gbstr 26 Del rocket 4.2 22:49:28 20° SE 22:49:28 20° SE 22:52:05 10° E
Okean 3 Rocket 3.5 22:47:02 24° S 22:49:42 88° WNW 22:54:09 10° N
Cosmos 1606 2.8 22:46:33 10° NNW 22:50:25 67° W 22:52:19 28° S
Cosmos 2278 Rocket 3.8 22:47:16 10° NW 22:51:37 23° WSW 22:54:59 14° SW
Cosmos 2112 Rocket 4.4 22:48:23 12° SW 22:53:16 65° WNW 22:58:39 10° NNE
Cosmos 2297 3.8 22:47:54 10° NW 22:53:36 65° WSW 22:57:11 23° S
Cosmos 304 Rocket 4.2 22:49:42 10° NNW 22:54:29 58° ENE 22:58:04 17° SE
Cosmos 2218 Rocket 4.1 22:50:54 22° S 22:55:14 75° E 23:01:33 10° NNE
Cosmos 2228 Rocket 4.1 22:51:53 10° N 22:56:16 41° ENE 22:59:19 18° SE
Cosmos 1420 Rocket 4.1 22:52:08 10° NNW 22:57:24 69° WSW 23:00:36 24° S
Cosmos 158 Rocket 4.4 22:52:56 11° SW 22:57:29 54° WNW 23:02:20 10° NNE
ATLAS 5 CENTAUR R/B 4.1 22:54:18 10° WNW 22:58:13 27° NNW 23:02:39 10° NE
Cosmos 1943 Rocket 2.3 22:54:37 10° NNW 23:00:21 79° ENE 23:04:40 18° SE
Lacrosse 5 rocket 1.6 22:56:41 10° WNW 23:00:44 64° NNE 23:04:32 10° ESE
Cosmos 2366 rocket 4.1 22:56:35 22° S 23:00:56 78° E 23:07:18 10° NNE
Cosmos 1633 3.4 23:01:11 26° SE 23:02:38 38° E 23:06:02 10° NNE
SL-16 R/B 2.2 23:00:47 21° SSW 23:04:35 70° ESE 23:10:16 10° NE
Cosmos 2056 Rocket 4.5 23:00:01 10° NW 23:04:56 36° WSW 23:07:58 20° SSW
Cosmos 1408 4.4 23:03:24 12° WSW 23:06:04 25° WNW 23:09:05 10° NNW
Cosmos 1959 Rocket 4.5 23:06:20 22° S 23:10:33 89° W 23:16:48 10° N
YAOGAN 11 4.1 23:09:09 26° SSE 23:11:38 88° ENE 23:16:06 10° NNW
Cosmos 1743 Rocket 4.0 23:12:36 25° SSE 23:14:48 48° E 23:19:00 10° NNE
Cosmos 2341 Rocket 4.5 23:11:47 16° SSW 23:16:42 55° WNW 23:22:49 10° N
Cosmos 332 Rocket 3.8 23:14:01 10° NNW 23:18:47 67° WSW 23:21:28 26° S
USA 267 4.5 23:21:24 18° SSW 23:23:53 23° SW 23:28:53 10° WNW
Meteor 2-3 Rocket 3.7 23:21:02 23° SSW 23:24:44 88° WNW 23:30:29 10° NNE
Helios 1A 3.3 23:24:53 27° SSW 23:26:54 54° W 23:31:01 10° NNW
Cosmos 2151 4.4 23:23:52 14° SW 23:27:01 31° WNW 23:30:52 10° N
Cosmos 405 2.9 23:24:05 10° NNW 23:27:39 80° WSW 23:29:08 33° S
Cosmos 1452 Rocket 3.8 23:27:01 10° NNW 23:32:09 53° WSW 23:35:06 24° S
CZ-4C R/B 3.0 23:26:40 10° NW 23:33:37 84° NE 23:41:47 10° SE
Meteor 2-6 Rocket 4.2 23:28:34 10° N 23:34:06 74° ENE 23:37:54 20° SSE
Cosmos 389 Rocket 4.5 23:31:22 10° N 23:34:17 23° ENE 23:37:05 10° ESE
COSMOS 2455 3.0 23:28:22 10° NW 23:34:20 61° WSW 23:38:24 21° SSE
PSLV R/B 3.9 23:30:13 10° NNE 23:34:22 54° E 23:36:34 26° SSE
SL-8 Rocket 4.5 23:30:59 17° SW 23:35:40 53° WNW 23:41:42 10° N
Cosmos 1825 4.3 23:32:59 10° WSW 23:35:50 20° WNW 23:38:42 10° NNW
Cosmos 1110 Rocket 4.1 23:30:52 10° NNW 23:36:11 79° ENE 23:40:16 17° SSE
Cosmos 1340 3.2 23:34:23 24° SW 23:36:22 52° WNW 23:40:04 10° N
ALOS 2 4.2 23:35:27 17° SW 23:37:38 24° W 23:41:13 10° NW
Cosmos 1151 Rocket 4.3 23:34:05 10° NNW 23:37:51 30° W 23:40:03 19° SW
Cosmos 1408 Rocket 4.0 23:35:56 23° SSW 23:38:31 56° WNW 23:42:53 10° N
SL-16 R/B 3.8 23:33:24 10° SE 23:39:02 38° ENE 23:44:43 10° N
Cosmos 1603 4.4 23:36:25 22° SSE 23:39:39 41° ESE 23:44:59 10° NE
Cosmos 1727 Rocket 4.3 23:37:52 10° NNW 23:43:57 58° W 23:48:04 21° SSW
APEX 3.9 23:42:12 10° WNW 23:44:22 22° WSW 23:44:22 22° WSW
Resurs 1-4 Rocket 4.0 23:40:45 10° NE 23:44:34 19° E 23:48:21 10° SE
Cosmos 2369 Rocket 2.2 23:39:15 10° NNW 23:44:51 73° WSW 23:48:49 20° SSE
Cosmos 44 3.3 23:43:38 15° SW 23:47:12 66° NW 23:51:42 10° NE
Cosmos 1500 Rocket 3.5 23:44:49 26° SSW 23:47:16 87° W 23:51:42 10° N
Cosmos 371 Rocket 4.5 23:44:03 10° NW 23:48:13 29° WSW 23:50:25 20° SW
SL-4 R/B 3.3 23:48:59 10° W 23:48:59 10° W 23:49:04 10° W
SeaSat 1 4.1 23:44:50 10° NE 23:48:39 22° ESE 23:51:20 15° SE
ISS -1.4 23:51:00 12° SE 23:51:00 12° SE 23:51:53 10° ESE
Helios 1B rocket 2.5 23:49:03 10° NNE 23:53:11 68° ESE 23:55:23 26° S
